EN

Hourly Weather Abay (Syrdarinskiy rayon)

Today, 15 May, Saturday

Time Temperature Precipitation Wind Pressure Humidity
00:00 +23°C° 0 mm 7 mps 754 mmHg 24%
01:00 +21°C° 0 mm 7 mps 754 mmHg 25%
02:00 +21°C° 0 mm 7 mps 754 mmHg 26%
03:00 +20°C° 0 mm 6 mps 754 mmHg 28%
04:00 +19°C° 0 mm 6 mps 754 mmHg 30%
05:00 +20°C° 0 mm 7 mps 754 mmHg 29%
06:00 +21°C° 0 mm 8 mps 755 mmHg 28%
07:00 +22°C° 0 mm 9 mps 755 mmHg 26%
08:00 +23°C° 0 mm 9 mps 755 mmHg 24%
09:00 +26°C° 0 mm 9 mps 755 mmHg 21%
10:00 +27°C° 0 mm 9 mps 755 mmHg 18%
11:00 +28°C° 0 mm 9 mps 755 mmHg 16%
12:00 +29°C° 0 mm 9 mps 754 mmHg 15%
13:00 +31°C° 0 mm 9 mps 754 mmHg 13%
14:00 +31°C° 0 mm 9 mps 754 mmHg 14%
15:00 +31°C° 0 mm 10 mps 753 mmHg 14%
16:00 +31°C° 0 mm 10 mps 753 mmHg 14%
17:00 +29°C° 0 mm 9 mps 753 mmHg 15%
18:00 +28°C° 0 mm 8 mps 753 mmHg 16%
19:00 +27°C° 0 mm 8 mps 753 mmHg 18%
20:00 +26°C° 0 mm 7 mps 753 mmHg 19%
21:00 +24°C° 0 mm 7 mps 753 mmHg 20%
22:00 +24°C° 0 mm 6 mps 753 mmHg 21%
23:00 +23°C° 0 mm 6 mps 753 mmHg 23%

Tomorrow, 16 May, Sunday

Time Temperature Precipitation Wind Pressure Humidity
00:00 +21°C° 0 mm 5 mps 753 mmHg 25%
01:00 +20°C° 0 mm 4 mps 753 mmHg 27%
02:00 +20°C° 0 mm 5 mps 753 mmHg 27%
03:00 +19°C° 0 mm 5 mps 753 mmHg 28%
04:00 +19°C° 0 mm 5 mps 753 mmHg 29%
05:00 +20°C° 0 mm 6 mps 753 mmHg 26%
06:00 +22°C° 0 mm 7 mps 754 mmHg 23%
07:00 +23°C° 0 mm 8 mps 754 mmHg 20%
08:00 +26°C° 0 mm 8 mps 754 mmHg 18%
09:00 +28°C° 0 mm 8 mps 754 mmHg 16%
10:00 +31°C° 0 mm 9 mps 754 mmHg 13%
11:00 +31°C° 0 mm 9 mps 753 mmHg 12%
12:00 +32°C° 0 mm 9 mps 753 mmHg 12%
13:00 +33°C° 0 mm 9 mps 753 mmHg 11%
14:00 +33°C° 0 mm 9 mps 752 mmHg 11%
15:00 +34°C° 0 mm 9 mps 752 mmHg 10%
16:00 +34°C° 0 mm 9 mps 752 mmHg 10%
17:00 +33°C° 0 mm 8 mps 752 mmHg 11%
18:00 +32°C° 0 mm 7 mps 752 mmHg 12%
19:00 +29°C° 0 mm 6 mps 752 mmHg 13%
20:00 +28°C° 0 mm 6 mps 752 mmHg 15%
21:00 +27°C° 0 mm 5 mps 752 mmHg 17%
22:00 +26°C° 0 mm 5 mps 752 mmHg 18%
23:00 +25°C° 0 mm 5 mps 752 mmHg 20%

Day after tomorrow, 17 May, Monday

Time Temperature Precipitation Wind Pressure Humidity
00:00 +23°C° 0 mm 5 mps 752 mmHg 22%
01:00 +23°C° 0 mm 4 mps 752 mmHg 23%
02:00 +22°C° 0 mm 4 mps 752 mmHg 24%
03:00 +22°C° 0 mm 4 mps 752 mmHg 25%
04:00 +21°C° 0 mm 4 mps 752 mmHg 25%
05:00 +23°C° 0 mm 5 mps 752 mmHg 23%
06:00 +25°C° 0 mm 5 mps 752 mmHg 21%
07:00 +27°C° 0 mm 6 mps 753 mmHg 19%
08:00 +29°C° 0 mm 7 mps 752 mmHg 18%
09:00 +30°C° 0 mm 7 mps 752 mmHg 18%
10:00 +33°C° 0 mm 8 mps 752 mmHg 17%
11:00 +34°C° 0 mm 8 mps 752 mmHg 17%
12:00 +35°C° 0 mm 8 mps 751 mmHg 16%
13:00 +35°C° 0 mm 8 mps 751 mmHg 16%
14:00 +35°C° 0 mm 8 mps 750 mmHg 16%
15:00 +37°C° 0 mm 8 mps 750 mmHg 16%
16:00 +36°C° 0 mm 7 mps 750 mmHg 16%
17:00 +35°C° 0 mm 6 mps 749 mmHg 17%
18:00 +33°C° 0 mm 5 mps 749 mmHg 19%
19:00 +32°C° 0 mm 4 mps 749 mmHg 20%
20:00 +32°C° 0 mm 4 mps 749 mmHg 21%
21:00 +30°C° 0 mm 4 mps 749 mmHg 21%
22:00 +30°C° 0 mm 3 mps 749 mmHg 22%
23:00 +29°C° 0 mm 3 mps 749 mmHg 23%

18 May, Tuesday

Time Temperature Precipitation Wind Pressure Humidity
00:00 +28°C° 0 mm 3 mps 749 mmHg 25%
01:00 +27°C° 0 mm 3 mps 749 mmHg 26%
02:00 +27°C° 0 mm 3 mps 748 mmHg 27%
03:00 +26°C° 0 mm 3 mps 748 mmHg 28%
04:00 +26°C° 0 mm 4 mps 748 mmHg 30%
05:00 +27°C° 0 mm 4 mps 749 mmHg 27%
06:00 +28°C° 0 mm 5 mps 749 mmHg 25%
07:00 +30°C° 0 mm 5 mps 749 mmHg 22%
08:00 +32°C° 0 mm 5 mps 749 mmHg 18%
09:00 +34°C° 0 mm 5 mps 748 mmHg 15%
10:00 +36°C° 0 mm 5 mps 748 mmHg 11%
11:00 +36°C° 0 mm 5 mps 748 mmHg 11%
12:00 +36°C° 0 mm 5 mps 748 mmHg 10%
13:00 +37°C° 0 mm 5 mps 747 mmHg 10%
14:00 +37°C° 0 mm 4 mps 747 mmHg 11%
15:00 +37°C° 0 mm 4 mps 747 mmHg 12%
16:00 +37°C° 0 mm 3 mps 746 mmHg 12%
17:00 +35°C° 0.1 mm 4 mps 746 mmHg 15%
18:00 +34°C° 0.1 mm 4 mps 746 mmHg 18%
19:00 +32°C° 0.1 mm 4 mps 746 mmHg 22%
20:00 +30°C° 0.1 mm 4 mps 746 mmHg 23%
21:00 +29°C° 0.1 mm 5 mps 746 mmHg 24%
22:00 +28°C° 0.1 mm 5 mps 746 mmHg 26%
23:00 +28°C° 0 mm 5 mps 746 mmHg 25%

19 May, Wednesday

Time Temperature Precipitation Wind Pressure Humidity
00:00 +27°C° 0 mm 4 mps 746 mmHg 24%
01:00 +27°C° 0 mm 4 mps 746 mmHg 24%
02:00 +26°C° 0 mm 4 mps 746 mmHg 25%
03:00 +25°C° 0 mm 4 mps 746 mmHg 27%
04:00 +23°C° 0 mm 4 mps 746 mmHg 29%
05:00 +26°C° 0 mm 5 mps 746 mmHg 28%
06:00 +27°C° 0 mm 5 mps 747 mmHg 27%
07:00 +28°C° 0 mm 5 mps 747 mmHg 27%
08:00 +30°C° 0 mm 6 mps 747 mmHg 24%
09:00 +33°C° 0 mm 6 mps 747 mmHg 21%
10:00 +35°C° 0 mm 6 mps 747 mmHg 18%
11:00 +36°C° 0 mm 6 mps 747 mmHg 16%
12:00 +38°C° 0 mm 6 mps 746 mmHg 14%
13:00 +39°C° 0 mm 6 mps 746 mmHg 13%
14:00 +39°C° 0 mm 6 mps 746 mmHg 12%
15:00 +39°C° 0 mm 6 mps 746 mmHg 12%
16:00 +39°C° 0 mm 7 mps 746 mmHg 12%
17:00 +37°C° 0 mm 8 mps 746 mmHg 16%
18:00 +34°C° 0 mm 10 mps 747 mmHg 20%
19:00 +33°C° 0 mm 11 mps 747 mmHg 24%
20:00 +31°C° 0.1 mm 9 mps 747 mmHg 27%
21:00 +29°C° 0.1 mm 7 mps 748 mmHg 31%
22:00 +28°C° 0.1 mm 5 mps 748 mmHg 35%
23:00 +27°C° 0.1 mm 6 mps 748 mmHg 37%

20 May, Thursday

Time Temperature Precipitation Wind Pressure Humidity
00:00 +26°C° 0.1 mm 6 mps 749 mmHg 39%
01:00 +24°C° 0.1 mm 6 mps 749 mmHg 41%
02:00 +24°C° 0 mm 6 mps 749 mmHg 42%
03:00 +23°C° 0 mm 7 mps 749 mmHg 44%
04:00 +23°C° 0 mm 7 mps 750 mmHg 45%
05:00 +24°C° 0 mm 8 mps 750 mmHg 43%
06:00 +24°C° 0 mm 8 mps 750 mmHg 41%
07:00 +26°C° 0 mm 9 mps 751 mmHg 39%
08:00 +27°C° 0 mm 9 mps 751 mmHg 35%
09:00 +28°C° 0 mm 9 mps 751 mmHg 31%
10:00 +31°C° 0 mm 9 mps 751 mmHg 26%
11:00 +32°C° 0 mm 9 mps 751 mmHg 23%
12:00 +32°C° 0 mm 9 mps 751 mmHg 20%
13:00 +33°C° 0 mm 9 mps 751 mmHg 16%
14:00 +33°C° 0 mm 9 mps 751 mmHg 16%
15:00 +33°C° 0 mm 9 mps 750 mmHg 16%
16:00 +33°C° 0 mm 10 mps 750 mmHg 15%
17:00 +32°C° 0 mm 9 mps 750 mmHg 16%
18:00 +31°C° 0 mm 8 mps 750 mmHg 17%
19:00 +29°C° 0 mm 8 mps 751 mmHg 18%
20:00 +28°C° 0 mm 8 mps 751 mmHg 19%
21:00 +28°C° 0 mm 8 mps 751 mmHg 20%
22:00 +27°C° 0 mm 8 mps 751 mmHg 21%
23:00 +26°C° 0 mm 7 mps 751 mmHg 21%
Show more